Hourly Data Report for November 03, 2019

All times are specified in Local Standard Time (LST). Add 1 hour to adjust for Daylight Saving Time where and when it is observed.

PINAWA
MANITOBA
Current Station Operator: ECCC - MSC

50°10'38.020" N
96°03'53.000" W
268.00 m
503B1ER
71448
WEA

Download Data

Hourly Data (November 2019)
Hourly Data Report for November 3, 2019
TIME Temp Definition
°C
Dew Point Definition
°C
Rel Hum Definition
%
Wind Dir Definition
10's deg

Wind Spd Definition
km/h
Visibility Definition
km
Stn Press Definition
kPa
Hmdx Definition


Wind Chill Definition


Weather Definition


00:00 -0.5 LegendMM LegendMM 17 6   98.09   -3 LegendNANA
01:00 -0.7 LegendMM LegendMM 17 6   98.05   -3 LegendNANA
02:00 -0.6 LegendMM LegendMM 18 5   98.03   -2 LegendNANA
03:00 -0.6 LegendMM LegendMM 18 5   98.00   -2 LegendNANA
04:00 -0.3 LegendMM LegendMM 18 5   97.96   -2 LegendNANA
05:00 -0.5 LegendMM LegendMM 17 7   97.93   -3 LegendNANA
06:00 -0.7 LegendMM LegendMM 13 3   97.90   -2 LegendNANA
07:00 -1.2 LegendMM LegendMM 15 4   97.88   -3 LegendNANA
08:00 -1.3 LegendMM LegendMM 14 2   97.89   -2 LegendNANA
09:00 -0.3 LegendMM LegendMM 18 4   97.86   -2 LegendNANA
10:00 0.2 LegendMM LegendMM 18 5   97.85     LegendNANA
11:00 1.1 LegendMM LegendMM 19 3   97.83     LegendNANA
12:00 2.2 LegendMM LegendMM 18 5   97.77     LegendNANA
13:00 2.5 LegendMM LegendMM 25 4   97.72     LegendNANA
14:00 2.4 LegendMM LegendMM 29 8   97.71     LegendNANA
15:00 2.0 LegendMM LegendMM 28 6   97.71     LegendNANA
16:00 0.3 LegendMM LegendMM 30 7   97.75     LegendNANA
17:00 0.2 LegendMM LegendMM 30 6   97.77     LegendNANA
18:00 0.2 LegendMM LegendMM 32 10   97.81     LegendNANA
19:00 -0.9 LegendMM LegendMM 35 14   97.86   -5 LegendNANA
20:00 -1.2 LegendMM LegendMM 35 10   97.88   -5 LegendNANA
21:00 -1.8 LegendMM LegendMM 1 5   97.85   -4 LegendNANA
22:00 -2.7 LegendMM LegendMM 34 3   97.88   -4 LegendNANA
23:00 -2.8 LegendMM LegendMM 31 3   97.89   -4 LegendNANA

Notes on Data Quality.

Legend

  • E = Estimated
  • M = Missing
  • NA = Not Available
Date modified: